{"data":{"norad_id":68708,"intl_designator":"2026-081K","name":"STARLINK-37340","alt_names":[],"object_type":"PAYLOAD","status":"ACTIVE","operator":null,"country":"US","launch_date":"2026-04-14","launch_site_code":"AFETR","launch_vehicle":null,"mission":null,"orbit_class":"UNKNOWN","rcs_meters":null,"size_class":null,"mass_kg":null,"dimensions":null,"purposes":["comms"],"wikipedia_slug":null,"has_3d_model":false,"image_url":null,"decayed_at":null,"tle_current":{"epoch":"2026-09-20T02:12:44.287200Z","epoch_age_seconds":79140,"freshness":"FRESH","line1":"1 68708U 26081K   26263.09217925  .00007940  00000+0  24585-3 0  9996","line2":"2 68708  53.1574 207.7864 0001753  86.0355 274.0848 15.34403445 24555","mean_motion":15.34403445,"eccentricity":0.0001753,"inclination_deg":53.1574,"raan_deg":207.7864,"arg_perigee_deg":86.0355,"mean_anomaly_deg":274.0848,"bstar":0.00024585,"rev_number":2455,"period_min":93.847547376955,"perigee_km":461.49380346109,"apogee_km":463.89219845943,"semimajor_km":6840.8300009603,"source":"CELESTRAK","updated_at":"2026-09-20T09:00:43.959128Z"}}}